星链-2112 (STARLINK-2112 )

导读 | 豆包AI

STARLINK-2112是美国太空探索技术公司(SpaceX)“星链”项目中的一颗卫星,于2021年1月20日由猎鹰9号火箭发射升空。它属于星链第一代低轨通信卫星,部署在近地轨道,为全球提供高速互联网接入服务。作为星链星座组网的重要组成部分,它与数千颗同系列卫星共同构建起覆盖全球的低轨卫星通信网络,推动了全球卫星互联网的发展进程。

Basic Information
目录编号:
47391
目录名称:
STARLINK-2112
国际标识:
2021-005AU
轨道中心:
EARTH
卫星名称:
星链-2112
卫星全名:
星链-2112 (STARLINK-2112 )
卫星状态:
在轨 (已飞行1926 天)
发射日期:
2021-01-20 UTC
国别 :
美国 (US)
星等 :
--
Orbit Information
数据来源 国际轨道数据 AOE轨道数据
星历时间 2026-04-30T11:32:25+0800
8小时前
查看轨道信息
2026-04-28T09:00:00+0800
2天前
查看轨道信息
半长轴 6913.969km 6914.27km
偏心率 0.0001767 0.0001932
轨道倾角 53.066° 53.066°
近地点辐角 47.947° 41.931°
升交点赤经 160.008° 169.512°
平近点角 312.168° 23.911°
近地点 534.61km 534.797km
远地点 537.054km 537.469km
周期 95.357分钟 95.363分钟
每日圈数 15.101206 15.100222
Detailed Information
固有亮度:
5
最大亮度:
2.5
卫星平台:
Starlink V1.0
覆盖范围:
全球
运营商:
太空探索技术公司
运营商所在国:
美国
制造商(研发单位):
太空探索技术公司
制造商所在国:
美国
使用方式:
暂无
Satellite Introduction
星链(Starlink)计划是由太空探索技术公司(SpaceX)提出的一个巨型低轨卫星互联网星座项目,计划在2019年至2024年间在太空搭建由约1.2万颗卫星组成的“星链”网络,其中1584颗将部署在地球上空550千米处的近地轨道,并从2020年开始工作。该卫星仍在工作。
2D Orbit Map
3D Orbit Map
Orbit Altitude Analysis Chart
Orbit Inclination Analysis Chart
Orbit Comprehensive Analysis Chart
View Comprehensive Chart